StationID,Date,MaxTemp,MinTemp,Precipitation,Snowfall,SnowDepth
"USR0000ASHC","1995-05-30",48.02,46.94,,,
"USR0000ASHC","1995-05-31",51.98,46.94,,,
"USR0000ASHC","1995-06-01",60.98,46.94,,,
"USR0000ASHC","1995-06-02",62.96,37.04,,,
"USR0000ASHC","1995-06-03",60.08,35.96,,,
"USR0000ASHC","1995-06-04",62.06,44.96,,,
"USR0000ASHC","1995-06-05",62.06,41.00,,,
"USR0000ASHC","1995-06-06",66.02,39.92,,,
"USR0000ASHC","1995-06-07",80.06,37.04,,,
"USR0000ASHC","1995-06-08",80.96,42.98,,,
"USR0000ASHC","1995-06-09",80.96,46.04,,,
"USR0000ASHC","1995-06-10",64.04,51.08,,,
"USR0000ASHC","1995-06-11",55.04,44.06,,,
"USR0000ASHC","1995-06-12",71.96,39.02,,,
"USR0000ASHC","1995-06-13",62.06,46.04,,,
"USR0000ASHC","1995-06-14",66.02,44.06,,,
"USR0000ASHC","1995-06-15",57.92,41.00,,,
"USR0000ASHC","1995-06-16",66.92,42.08,,,
"USR0000ASHC","1995-06-17",55.04,44.06,,,
"USR0000ASHC","1995-06-18",66.92,44.96,,,
"USR0000ASHC","1995-06-19",75.02,41.00,,,
"USR0000ASHC","1995-06-20",64.04,46.94,,,
"USR0000ASHC","1995-06-21",66.92,50.00,,,
"USR0000ASHC","1995-06-22",62.96,48.02,,,
"USR0000ASHC","1995-06-23",62.06,44.96,,,
"USR0000ASHC","1995-06-24",57.92,46.04,,,
"USR0000ASHC","1995-06-25",66.02,41.00,,,
"USR0000ASHC","1995-06-26",73.04,37.94,,,
"USR0000ASHC","1995-06-27",80.06,42.08,,,
"USR0000ASHC","1995-06-28",84.92,48.02,,,
"USR0000ASHC","1995-06-29",86.00,48.92,,,
"USR0000ASHC","1995-06-30",82.94,53.06,,,
"USR0000ASHC","1995-07-01",62.96,53.06,,,
"USR0000ASHC","1995-07-02",64.94,53.06,,,
"USR0000ASHC","1995-07-03",62.06,53.06,,,
"USR0000ASHC","1995-07-04",69.08,53.06,,,
"USR0000ASHC","1995-07-05",69.08,53.06,,,
"USR0000ASHC","1995-07-06",75.92,50.00,,,
"USR0000ASHC","1995-07-07",82.94,46.94,,,
"USR0000ASHC","1995-07-08",71.96,48.02,,,
"USR0000ASHC","1995-07-09",77.00,51.98,,,
"USR0000ASHC","1995-07-10",73.04,48.02,,,
"USR0000ASHC","1995-07-11",64.94,53.96,,,
"USR0000ASHC","1995-07-12",62.96,53.06,,,
"USR0000ASHC","1995-07-13",60.98,53.06,,,
"USR0000ASHC","1995-07-14",64.94,48.92,,,
"USR0000ASHC","1995-07-15",66.02,44.96,,,
"USR0000ASHC","1995-07-16",60.08,53.06,,,
"USR0000ASHC","1995-07-17",73.94,53.06,,,
"USR0000ASHC","1995-07-18",80.06,51.08,,,
"USR0000ASHC","1995-07-19",80.96,57.92,,,
"USR0000ASHC","1995-07-20",82.94,59.00,,,
"USR0000ASHC","1995-07-21",86.00,55.04,,,
"USR0000ASHC","1995-07-22",69.08,51.98,,,
"USR0000ASHC","1995-07-23",62.96,51.98,,,
"USR0000ASHC","1995-07-24",55.94,51.98,,,
"USR0000ASHC","1995-07-25",66.92,51.98,,,
"USR0000ASHC","1995-07-26",62.96,50.00,,,
"USR0000ASHC","1995-07-27",64.04,48.92,,,
"USR0000ASHC","1995-07-28",71.06,46.94,,,
"USR0000ASHC","1995-07-29",71.96,44.06,,,
"USR0000ASHC","1995-07-30",60.08,53.06,,,
"USR0000ASHC","1995-07-31",62.06,48.92,,,
"USR0000ASHC","1995-08-01",68.00,50.00,,,
"USR0000ASHC","1995-08-02",55.94,50.00,,,
"USR0000ASHC","1995-08-03",55.94,53.96,,,
"USR0000ASHC","1995-08-04",64.04,51.08,,,
"USR0000ASHC","1995-08-05",62.06,50.00,,,
"USR0000ASHC","1995-08-06",66.92,46.04,,,
"USR0000ASHC","1995-08-07",78.08,42.98,,,
"USR0000ASHC","1995-08-08",62.06,46.94,,,
"USR0000ASHC","1995-08-09",78.08,46.04,,,
"USR0000ASHC","1995-08-10",77.00,48.92,,,
"USR0000ASHC","1995-08-11",64.04,44.06,,,
"USR0000ASHC","1995-08-12",66.92,42.08,,,
"USR0000ASHC","1995-08-13",55.04,51.98,,,
"USR0000ASHC","1995-08-14",62.06,48.92,,,
"USR0000ASHC","1995-08-15",62.06,46.04,,,
"USR0000ASHC","1995-08-16",60.08,46.94,,,
"USR0000ASHC","1995-08-17",60.98,48.92,,,
"USR0000ASHC","1995-08-18",69.08,46.04,,,
"USR0000ASHC","1995-08-19",71.06,42.08,,,
"USR0000ASHC","1995-08-20",73.04,48.92,,,
"USR0000ASHC","1995-08-21",62.96,50.00,,,
"USR0000ASHC","1995-08-22",62.06,53.06,,,
"USR0000ASHC","1995-08-23",62.06,51.98,,,
"USR0000ASHC","1995-08-24",57.02,51.98,,,
"USR0000ASHC","1995-08-25",62.96,48.02,,,
"USR0000ASHC","1995-08-26",68.00,46.04,,,
"USR0000ASHC","1995-08-27",66.92,46.94,,,
"USR0000ASHC","1995-08-28",64.94,46.04,,,
"USR0000ASHC","1995-08-29",64.94,48.92,,,
"USR0000ASHC","1995-08-30",62.96,48.02,,,
"USR0000ASHC","1995-08-31",55.04,51.08,,,
"USR0000ASHC","1995-09-01",55.04,51.08,,,
"USR0000ASHC","1995-09-02",60.08,50.00,,,
"USR0000ASHC","1995-09-03",66.92,48.92,,,
"USR0000ASHC","1995-09-04",73.94,50.00,,,
"USR0000ASHC","1995-09-05",68.00,51.08,,,
"USR0000ASHC","1995-09-06",73.04,57.02,,,
"USR0000ASHC","1995-09-07",77.00,53.96,,,
"USR0000ASHC","1995-09-08",60.98,50.00,,,
"USR0000ASHC","1995-09-09",57.92,57.02,,,
"USR0000ASHC","1995-09-10",57.92,57.02,,,
"USR0000ASHC","1995-09-11",60.98,55.04,,,
"USR0000ASHC","1995-09-12",69.98,50.00,,,
"USR0000ASHC","1995-09-13",71.96,48.92,,,
"USR0000ASHC","1995-09-14",69.98,53.06,,,
"USR0000ASHC","1995-09-15",68.00,48.92,,,
"USR0000ASHC","1995-09-16",78.08,51.98,,,
"USR0000ASHC","1995-09-17",66.92,55.04,,,
"USR0000ASHC","1995-09-18",62.96,53.96,,,
"USR0000ASHC","1995-09-19",73.94,53.06,,,
"USR0000ASHC","1995-09-20",69.98,51.98,,,
"USR0000ASHC","1995-09-21",80.06,53.96,,,
"USR0000ASHC","1995-09-22",80.06,51.98,,,
"USR0000ASHC","1995-09-23",77.00,53.06,,,
"USR0000ASHC","1995-09-24",73.94,51.08,,,
"USR0000ASHC","1995-09-25",64.94,53.06,,,
"USR0000ASHC","1995-09-26",64.04,51.98,,,
"USR0000ASHC","1995-09-27",57.02,51.98,,,
"USR0000ASHC","1995-09-28",57.92,50.00,,,
"USR0000ASHC","1995-09-29",51.98,48.02,,,
"USR0000ASHC","1995-09-30",59.00,44.06,,,
"USR0000ASHC","1995-10-01",50.00,46.04,,,
"USR0000ASHC","1995-10-02",51.08,46.04,,,
"USR0000ASHC","1995-10-03",51.98,46.04,,,
"USR0000ASHC","1995-10-04",50.00,46.94,,,
"USR0000ASHC","1995-10-05",51.08,46.94,,,
"USR0000ASHC","1995-10-06",55.94,46.04,,,
"USR0000ASHC","1995-10-07",51.08,46.94,,,
"USR0000ASHC","1995-10-08",48.02,46.04,,,
"USR0000ASHC","1995-10-09",46.94,42.08,,,
"USR0000ASHC","1995-10-10",46.94,39.92,,,
"USR0000ASHC","1995-10-11",44.96,41.00,,,
"USR0000ASHC","1995-10-12",46.04,39.92,,,
"USR0000ASHC","1995-10-13",51.98,42.98,,,
"USR0000ASHC","1995-10-14",53.96,39.02,,,
"USR0000ASHC","1995-10-15",55.94,35.96,,,
"USR0000ASHC","1995-10-16",50.00,39.92,,,
"USR0000ASHC","1995-10-17",48.92,42.98,,,
"USR0000ASHC","1995-10-18",50.00,44.96,,,
"USR0000ASHC","1995-10-19",48.92,44.96,,,
"USR0000ASHC","1995-10-20",44.96,42.08,,,
"USR0000ASHC","1995-10-21",51.98,42.98,,,
"USR0000ASHC","1995-10-22",48.02,44.06,,,
"USR0000ASHC","1995-10-23",50.00,42.08,,,
"USR0000ASHC","1995-10-24",48.92,46.04,,,
"USR0000ASHC","1995-10-25",48.92,44.96,,,
"USR0000ASHC","1995-10-26",48.92,44.06,,,
"USR0000ASHC","1995-10-27",48.02,37.94,,,
"USR0000ASHC","1995-10-28",46.94,35.96,,,
"USR0000ASHC","1995-10-29",51.08,33.08,,,
"USR0000ASHC","1995-10-30",48.92,30.92,,,
"USR0000ASHC","1995-10-31",55.94,33.98,,,
"USR0000ASHC","1995-11-01",55.04,33.98,,,
"USR0000ASHC","1995-11-02",46.04,39.02,,,
"USR0000ASHC","1995-11-03",48.02,39.02,,,
"USR0000ASHC","1995-11-04",46.04,41.00,,,
"USR0000ASHC","1995-11-05",42.98,37.94,,,
"USR0000ASHC","1995-11-06",41.00,37.94,,,
"USR0000ASHC","1995-11-07",46.94,37.94,,,
"USR0000ASHC","1995-11-08",37.94,33.08,,,
"USR0000ASHC","1995-11-09",39.02,23.00,,,
"USR0000ASHC","1995-11-10",30.02,26.96,,,
"USR0000ASHC","1995-11-11",39.02,30.02,,,
"USR0000ASHC","1995-11-12",42.08,32.00,,,
"USR0000ASHC","1995-11-13",46.04,39.02,,,
"USR0000ASHC","1995-11-14",44.06,32.00,,,
"USR0000ASHC","1995-11-15",55.94,44.06,,,
"USR0000ASHC","1995-11-16",55.04,50.00,,,
"USR0000ASHC","1995-11-17",51.98,46.94,,,
"USR0000ASHC","1995-11-18",55.04,42.98,,,
"USR0000ASHC","1995-11-19",44.96,41.00,,,
"USR0000ASHC","1995-11-20",44.06,41.00,,,
"USR0000ASHC","1995-11-21",48.02,42.98,,,
"USR0000ASHC","1995-11-22",50.00,44.96,,,
"USR0000ASHC","1995-11-23",48.92,44.96,,,
"USR0000ASHC","1995-11-24",48.02,44.06,,,
"USR0000ASHC","1995-11-25",46.94,39.02,,,
"USR0000ASHC","1995-11-26",39.02,35.96,,,
"USR0000ASHC","1995-11-27",39.02,30.02,,,
"USR0000ASHC","1995-11-28",35.06,30.02,,,
"USR0000ASHC","1995-11-29",35.96,30.02,,,
"USR0000ASHC","1995-11-30",44.96,28.04,,,
"USR0000ASHC","1995-12-01",35.96,30.02,,,
"USR0000ASHC","1995-12-02",35.06,26.06,,,
"USR0000ASHC","1995-12-03",37.94,21.02,,,
"USR0000ASHC","1995-12-04",32.00,15.08,,,
"USR0000ASHC","1995-12-05",37.04,24.98,,,
"USR0000ASHC","1995-12-06",24.08,6.98,,,
"USR0000ASHC","1995-12-07",33.08,5.00,,,
"USR0000ASHC","1995-12-08",35.06,8.06,,,
"USR0000ASHC","1995-12-09",39.02,12.02,,,
"USR0000ASHC","1995-12-10",39.92,28.94,,,
"USR0000ASHC","1995-12-11",37.04,30.02,,,
"USR0000ASHC","1995-12-12",41.00,28.94,,,
"USR0000ASHC","1995-12-13",37.94,33.98,,,
"USR0000ASHC","1995-12-14",44.96,30.92,,,
"USR0000ASHC","1995-12-15",35.06,26.96,,,
"USR0000ASHC","1995-12-16",39.02,33.08,,,
"USR0000ASHC","1995-12-17",42.98,39.02,,,
"USR0000ASHC","1995-12-18",44.96,39.92,,,
"USR0000ASHC","1995-12-19",46.04,39.02,,,
"USR0000ASHC","1995-12-20",42.98,37.94,,,
"USR0000ASHC","1995-12-21",44.06,39.92,,,
"USR0000ASHC","1995-12-22",41.00,37.94,,,
"USR0000ASHC","1995-12-23",44.96,39.92,,,
"USR0000ASHC","1995-12-24",44.96,39.92,,,
"USR0000ASHC","1995-12-25",48.02,41.00,,,
"USR0000ASHC","1995-12-26",44.06,41.00,,,
"USR0000ASHC","1995-12-27",44.06,39.92,,,
"USR0000ASHC","1995-12-28",46.04,41.00,,,
"USR0000ASHC","1996-04-09",53.96,44.06,,,
"USR0000ASHC","1996-04-10",51.98,39.02,,,
"USR0000ASHC","1996-04-11",57.02,37.94,,,
"USR0000ASHC","1996-04-12",60.08,37.04,,,
"USR0000ASHC","1996-04-13",53.06,39.02,,,
"USR0000ASHC","1996-04-14",55.04,41.00,,,
"USR0000ASHC","1996-04-15",53.96,42.98,,,
"USR0000ASHC","1996-04-16",60.98,41.00,,,
"USR0000ASHC","1996-04-17",48.92,39.92,,,
"USR0000ASHC","1996-04-18",62.96,41.00,,,
"USR0000ASHC","1996-04-19",57.02,39.92,,,
"USR0000ASHC","1996-04-20",51.08,37.94,,,
"USR0000ASHC","1996-04-21",62.06,37.94,,,
"USR0000ASHC","1996-04-22",53.06,39.02,,,
"USR0000ASHC","1996-04-23",55.94,37.04,,,
"USR0000ASHC","1996-04-24",50.00,42.08,,,
"USR0000ASHC","1996-04-25",51.98,39.92,,,
"USR0000ASHC","1996-04-26",46.94,39.92,,,
"USR0000ASHC","1996-04-27",50.00,37.04,,,
"USR0000ASHC","1996-04-28",42.08,39.02,,,
"USR0000ASHC","1996-04-29",42.08,39.02,,,
"USR0000ASHC","1996-04-30",50.00,37.04,,,
"USR0000ASHC","1996-05-01",48.02,33.08,,,
"USR0000ASHC","1996-05-02",57.92,39.92,,,
"USR0000ASHC","1996-05-03",64.94,37.94,,,
"USR0000ASHC","1996-05-04",62.96,42.08,,,
"USR0000ASHC","1996-05-05",50.00,37.94,,,
"USR0000ASHC","1996-05-06",51.98,32.00,,,
"USR0000ASHC","1996-05-07",55.94,33.98,,,
"USR0000ASHC","1996-05-08",55.94,35.06,,,
"USR0000ASHC","1996-05-09",51.98,35.06,,,
"USR0000ASHC","1996-05-10",57.92,37.04,,,
"USR0000ASHC","1996-05-11",62.96,39.02,,,
"USR0000ASHC","1996-05-12",55.04,46.04,,,
"USR0000ASHC","1996-05-13",50.00,42.98,,,
"USR0000ASHC","1996-05-14",48.92,39.02,,,
"USR0000ASHC","1996-05-15",55.04,37.94,,,
"USR0000ASHC","1996-05-16",48.02,41.00,,,
"USR0000ASHC","1996-05-17",62.06,37.94,,,
"USR0000ASHC","1996-05-18",66.92,44.96,,,
"USR0000ASHC","1996-05-19",53.06,44.96,,,
"USR0000ASHC","1996-05-20",57.02,44.96,,,
"USR0000ASHC","1996-05-21",57.02,44.06,,,
"USR0000ASHC","1996-05-22",62.06,39.92,,,
"USR0000ASHC","1996-05-23",62.96,42.98,,,
"USR0000ASHC","1996-05-24",48.92,42.98,,,
"USR0000ASHC","1996-05-25",51.98,42.08,,,
"USR0000ASHC","1996-05-26",53.06,41.00,,,
"USR0000ASHC","1996-05-27",57.92,41.00,,,
"USR0000ASHC","1996-05-28",62.96,39.92,,,
"USR0000ASHC","1996-05-29",75.02,44.06,,,
"USR0000ASHC","1996-05-30",66.02,44.96,,,
"USR0000ASHC","1996-05-31",64.04,46.04,,,
"USR0000ASHC","1996-06-01",68.00,48.92,,,
"USR0000ASHC","1996-06-02",71.96,51.08,,,
"USR0000ASHC","1996-06-03",75.92,51.98,,,
"USR0000ASHC","1996-06-04",55.94,46.94,,,
"USR0000ASHC","1996-06-05",57.92,46.04,,,
"USR0000ASHC","1996-06-06",51.08,46.04,,,
"USR0000ASHC","1996-06-07",57.92,46.04,,,
"USR0000ASHC","1996-06-08",51.08,44.96,,,
"USR0000ASHC","1996-06-09",53.06,42.08,,,
"USR0000ASHC","1996-06-10",50.00,44.06,,,
"USR0000ASHC","1996-06-11",51.08,46.04,,,
"USR0000ASHC","1996-06-12",48.02,41.00,,,
"USR0000ASHC","1996-06-13",55.04,39.02,,,
"USR0000ASHC","1996-06-14",50.00,41.00,,,
"USR0000ASHC","1996-06-15",60.08,44.06,,,
"USR0000ASHC","1996-06-16",55.04,42.98,,,
"USR0000ASHC","1996-06-17",66.92,39.92,,,
"USR0000ASHC","1996-06-18",57.92,48.02,,,
"USR0000ASHC","1996-06-19",59.00,46.94,,,
"USR0000ASHC","1996-06-20",69.98,51.98,,,
"USR0000ASHC","1996-06-21",75.92,51.08,,,
"USR0000ASHC","1996-06-22",57.92,51.98,,,
"USR0000ASHC","1996-06-23",77.00,51.98,,,
"USR0000ASHC","1996-06-24",84.02,55.94,,,
"USR0000ASHC","1996-06-25",62.96,51.98,,,
"USR0000ASHC","1996-06-26",59.00,51.08,,,
"USR0000ASHC","1996-06-27",55.94,48.02,,,
"USR0000ASHC","1996-06-28",51.98,46.94,,,
"USR0000ASHC","1996-06-29",50.00,46.94,,,
"USR0000ASHC","1996-06-30",55.04,46.94,,,
"USR0000ASHC","1996-07-01",57.92,46.04,,,
"USR0000ASHC","1996-07-02",66.92,42.98,,,
"USR0000ASHC","1996-07-03",66.02,50.00,,,
"USR0000ASHC","1996-07-04",53.96,48.92,,,
"USR0000ASHC","1996-07-05",53.96,48.02,,,
"USR0000ASHC","1996-07-06",60.98,44.06,,,
"USR0000ASHC","1996-07-07",73.04,51.08,,,
"USR0000ASHC","1996-07-08",59.00,51.08,,,
"USR0000ASHC","1996-07-09",59.00,50.00,,,
"USR0000ASHC","1996-07-10",53.06,48.92,,,
"USR0000ASHC","1996-07-11",69.98,51.98,,,
"USR0000ASHC","1996-07-12",69.98,51.98,,,
"USR0000ASHC","1996-07-13",73.94,53.96,,,
"USR0000ASHC","1996-07-14",69.98,51.98,,,
"USR0000ASHC","1996-07-15",64.94,48.02,,,
"USR0000ASHC","1996-07-16",66.02,48.02,,,
"USR0000ASHC","1996-07-17",75.02,48.92,,,
"USR0000ASHC","1996-07-18",53.06,50.00,,,
"USR0000ASHC","1996-07-19",53.96,48.92,,,
"USR0000ASHC","1996-07-20",57.92,50.00,,,
"USR0000ASHC","1996-07-21",62.06,51.08,,,
"USR0000ASHC","1996-07-22",66.02,51.98,,,
"USR0000ASHC","1996-07-23",77.00,51.98,,,
"USR0000ASHC","1996-07-24",80.06,55.04,,,
"USR0000ASHC","1996-07-25",80.96,57.92,,,
"USR0000ASHC","1996-07-26",82.94,57.92,,,
"USR0000ASHC","1996-07-27",84.92,55.94,,,
"USR0000ASHC","1996-07-28",80.96,55.04,,,
"USR0000ASHC","1996-07-29",64.04,51.98,,,
"USR0000ASHC","1996-07-30",62.96,51.08,,,
"USR0000ASHC","1996-07-31",55.04,51.98,,,
"USR0000ASHC","1996-08-01",66.02,48.02,,,
"USR0000ASHC","1996-08-02",66.02,53.96,,,
"USR0000ASHC","1996-08-03",55.94,51.98,,,
"USR0000ASHC","1996-08-04",68.00,51.98,,,
"USR0000ASHC","1996-08-05",75.92,51.08,,,
"USR0000ASHC","1996-08-06",64.04,51.08,,,
"USR0000ASHC","1996-08-07",60.98,48.92,,,
"USR0000ASHC","1996-08-08",55.04,51.98,,,
"USR0000ASHC","1996-08-09",57.92,51.98,,,
"USR0000ASHC","1996-08-10",71.96,51.98,,,
"USR0000ASHC","1996-08-11",66.02,53.06,,,
"USR0000ASHC","1996-08-12",60.08,50.00,,,
"USR0000ASHC","1996-08-13",62.96,50.00,,,
"USR0000ASHC","1996-08-14",68.00,46.94,,,
"USR0000ASHC","1996-08-15",62.06,51.08,,,
"USR0000ASHC","1996-08-16",53.96,51.08,,,
"USR0000ASHC","1996-08-17",60.98,51.98,,,
"USR0000ASHC","1996-08-18",53.96,48.92,,,
"USR0000ASHC","1996-08-19",62.96,48.02,,,
"USR0000ASHC","1996-08-20",55.04,51.08,,,
"USR0000ASHC","1996-08-21",55.04,51.08,,,
"USR0000ASHC","1996-08-22",60.08,51.08,,,
"USR0000ASHC","1996-08-23",60.98,51.08,,,
"USR0000ASHC","1996-08-24",69.98,48.02,,,
"USR0000ASHC","1996-08-25",71.96,48.92,,,
"USR0000ASHC","1996-08-26",69.08,55.04,,,
"USR0000ASHC","1996-08-27",75.92,51.98,,,
"USR0000ASHC","1996-08-28",71.96,59.00,,,
"USR0000ASHC","1996-08-29",64.04,59.00,,,
"USR0000ASHC","1996-08-30",66.02,53.96,,,
"USR0000ASHC","1996-08-31",57.02,51.08,,,
"USR0000ASHC","1996-09-01",53.96,50.00,,,
"USR0000ASHC","1996-09-02",55.04,48.92,,,
"USR0000ASHC","1996-09-03",71.06,48.92,,,
"USR0000ASHC","1996-09-04",71.96,50.00,,,
"USR0000ASHC","1996-09-05",57.92,46.94,,,
"USR0000ASHC","1996-09-06",66.02,46.04,,,
"USR0000ASHC","1996-09-07",64.94,44.96,,,
"USR0000ASHC","1996-09-08",57.92,48.92,,,
"USR0000ASHC","1996-09-09",60.08,50.00,,,
"USR0000ASHC","1996-09-10",55.94,48.92,,,
"USR0000ASHC","1996-09-11",69.98,50.00,,,
"USR0000ASHC","1996-09-12",60.08,51.98,,,
"USR0000ASHC","1996-09-13",55.94,51.08,,,
"USR0000ASHC","1996-09-14",55.94,44.96,,,
"USR0000ASHC","1996-09-15",57.02,42.98,,,
"USR0000ASHC","1996-09-16",60.98,46.04,,,
"USR0000ASHC","1996-09-17",51.98,48.02,,,
"USR0000ASHC","1996-09-18",55.04,48.92,,,
"USR0000ASHC","1997-04-18",46.04,32.00,,,
"USR0000ASHC","1997-04-19",55.94,30.92,,,
"USR0000ASHC","1997-04-20",46.04,37.94,,,
"USR0000ASHC","1997-04-21",44.96,37.94,,,
"USR0000ASHC","1997-04-22",62.06,35.96,,,
"USR0000ASHC","1997-04-23",64.94,46.04,,,
"USR0000ASHC","1997-04-24",66.92,41.00,,,
"USR0000ASHC","1997-04-25",50.00,42.98,,,
"USR0000ASHC","1997-04-26",48.92,39.02,,,
"USR0000ASHC","1997-04-27",48.02,37.94,,,
"USR0000ASHC","1997-04-28",48.02,39.92,,,
"USR0000ASHC","1997-04-29",48.92,35.06,,,
"USR0000ASHC","1997-04-30",53.96,33.08,,,
"USR0000ASHC","1997-05-01",57.02,35.06,,,
"USR0000ASHC","1997-05-02",62.96,37.04,,,
"USR0000ASHC","1997-05-03",53.06,42.98,,,
"USR0000ASHC","1997-05-04",62.06,39.02,,,
"USR0000ASHC","1997-05-05",53.96,42.08,,,
"USR0000ASHC","1997-05-06",53.96,41.00,,,
"USR0000ASHC","1997-05-07",46.94,41.00,,,
"USR0000ASHC","1997-05-08",46.94,39.02,,,
"USR0000ASHC","1997-05-09",46.04,41.00,,,
"USR0000ASHC","1997-05-10",59.00,42.08,,,
"USR0000ASHC","1997-05-11",69.08,44.96,,,
"USR0000ASHC","1997-05-12",73.94,50.00,,,
"USR0000ASHC","1997-05-13",75.02,48.02,,,
"USR0000ASHC","1997-05-14",53.06,48.02,,,
"USR0000ASHC","1997-05-15",50.00,42.98,,,
"USR0000ASHC","1997-05-16",53.96,41.00,,,
"USR0000ASHC","1997-05-17",62.96,39.92,,,
"USR0000ASHC","1997-05-18",55.94,46.04,,,
"USR0000ASHC","1997-05-19",69.98,42.98,,,
"USR0000ASHC","1997-05-20",69.08,48.92,,,
"USR0000ASHC","1997-05-21",66.92,50.00,,,
"USR0000ASHC","1997-05-22",77.00,48.02,,,
"USR0000ASHC","1997-05-23",75.92,46.94,,,
"USR0000ASHC","1997-05-24",66.02,46.94,,,
"USR0000ASHC","1997-05-25",64.04,46.04,,,
"USR0000ASHC","1997-05-26",62.06,46.04,,,
"USR0000ASHC","1997-05-27",57.92,44.96,,,
"USR0000ASHC","1997-05-28",60.08,50.00,,,
"USR0000ASHC","1997-05-29",66.92,48.02,,,
"USR0000ASHC","1997-05-30",69.98,46.04,,,
"USR0000ASHC","1997-05-31",55.04,50.00,,,
"USR0000ASHC","1997-06-01",55.04,46.94,,,
"USR0000ASHC","1997-06-02",57.92,46.94,,,
"USR0000ASHC","1997-06-03",73.04,46.94,,,
"USR0000ASHC","1997-06-04",64.94,48.92,,,
"USR0000ASHC","1997-06-05",57.02,46.04,,,
"USR0000ASHC","1997-06-06",48.92,44.96,,,
"USR0000ASHC","1997-06-07",53.06,44.96,,,
"USR0000ASHC","1997-06-08",53.96,44.96,,,
"USR0000ASHC","1997-06-09",62.96,46.04,,,
"USR0000ASHC","1997-06-10",77.00,44.06,,,
"USR0000ASHC","1997-06-11",73.94,51.08,,,
"USR0000ASHC","1997-06-12",60.08,51.98,,,
"USR0000ASHC","1997-06-13",57.92,50.00,,,
"USR0000ASHC","1997-06-14",53.96,50.00,,,
"USR0000ASHC","1997-06-15",57.92,46.94,,,
"USR0000ASHC","1997-06-16",68.00,44.96,,,
"USR0000ASHC","1997-06-17",57.02,50.00,,,
"USR0000ASHC","1997-06-18",55.04,48.02,,,
"USR0000ASHC","1997-06-19",57.92,46.04,,,
"USR0000ASHC","1997-06-20",62.06,42.98,,,
"USR0000ASHC","1997-06-21",78.98,50.00,,,
"USR0000ASHC","1997-06-22",87.98,60.98,,,
"USR0000ASHC","1997-06-23",69.98,57.92,,,
"USR0000ASHC","1997-06-24",64.94,57.02,,,
"USR0000ASHC","1997-06-25",78.08,53.96,,,
"USR0000ASHC","1997-06-26",55.94,53.06,,,
"USR0000ASHC","1997-06-27",57.02,51.98,,,
"USR0000ASHC","1997-06-28",64.94,51.98,,,
"USR0000ASHC","1997-06-29",73.94,55.94,,,
"USR0000ASHC","1997-06-30",66.92,53.06,,,
"USR0000ASHC","1997-07-01",59.00,55.04,,,
"USR0000ASHC","1997-07-02",64.94,53.06,,,
"USR0000ASHC","1997-07-03",71.96,51.98,,,
"USR0000ASHC","1997-07-04",84.02,55.94,,,
"USR0000ASHC","1997-07-05",80.06,57.92,,,
"USR0000ASHC","1997-07-06",59.00,53.06,,,
"USR0000ASHC","1997-07-07",60.08,51.98,,,
"USR0000ASHC","1997-07-08",62.06,53.06,,,
"USR0000ASHC","1997-07-09",66.02,50.00,,,
"USR0000ASHC","1997-07-10",69.08,55.04,,,
"USR0000ASHC","1997-07-11",69.08,51.98,,,
"USR0000ASHC","1997-07-12",59.00,53.96,,,
"USR0000ASHC","1997-07-13",64.04,55.94,,,
"USR0000ASHC","1997-07-14",86.00,55.04,,,
"USR0000ASHC","1997-07-15",89.96,23.00,,,
"USR0000ASHC","1997-07-16",8.06,-56.02,,,
"USR0000ASHC","1997-07-23",60.08,51.98,,,
"USR0000ASHC","1997-07-24",60.98,51.98,,,
"USR0000ASHC","1997-07-25",64.94,53.06,,,
"USR0000ASHC","1997-07-26",69.08,51.98,,,
"USR0000ASHC","1997-07-27",68.00,53.06,,,
"USR0000ASHC","1997-07-28",69.98,55.04,,,
"USR0000ASHC","1997-07-29",69.08,53.96,,,
"USR0000ASHC","1997-07-30",64.04,51.98,,,
"USR0000ASHC","1997-07-31",55.94,50.00,,,
"USR0000ASHC","1997-08-01",64.94,51.98,,,
"USR0000ASHC","1997-08-02",62.06,51.98,,,
"USR0000ASHC","1997-08-03",66.02,53.96,,,
"USR0000ASHC","1997-08-04",73.94,55.94,,,
"USR0000ASHC","1997-08-05",69.98,57.02,,,
"USR0000ASHC","1997-08-06",66.02,53.96,,,
"USR0000ASHC","1997-08-07",66.02,53.06,,,
"USR0000ASHC","1997-08-08",73.94,55.94,,,
"USR0000ASHC","1997-08-09",75.92,53.96,,,
"USR0000ASHC","1997-08-10",80.06,59.00,,,
"USR0000ASHC","1997-08-11",78.08,62.96,,,
"USR0000ASHC","1997-08-12",69.98,59.00,,,
"USR0000ASHC","1997-08-13",64.94,59.00,,,
"USR0000ASHC","1997-08-14",69.98,57.92,,,
"USR0000ASHC","1997-08-15",84.92,55.04,,,
"USR0000ASHC","1997-08-16",82.94,55.94,,,
"USR0000ASHC","1997-08-17",73.04,57.02,,,
"USR0000ASHC","1997-08-18",71.96,55.04,,,
"USR0000ASHC","1997-08-19",69.08,55.94,,,
"USR0000ASHC","1997-08-20",80.96,55.94,,,
"USR0000ASHC","1997-08-21",59.00,55.94,,,
"USR0000ASHC","1997-08-22",55.94,55.04,,,
"USR0000ASHC","1997-08-23",60.98,53.96,,,
"USR0000ASHC","1997-08-24",60.08,55.04,,,
"USR0000ASHC","1997-08-25",57.92,53.96,,,
"USR0000ASHC","1997-08-26",64.94,53.96,,,
"USR0000ASHC","1997-08-27",60.08,53.96,,,
"USR0000ASHC","1997-08-28",60.98,53.06,,,
"USR0000ASHC","1997-08-29",60.98,53.06,,,
"USR0000ASHC","1997-08-30",69.98,53.06,,,
"USR0000ASHC","1997-08-31",78.08,50.00,,,
"USR0000ASHC","1997-09-01",53.06,51.98,,,
"USR0000ASHC","1997-09-04",57.92,51.08,,,
"USR0000ASHC","1997-09-05",69.08,48.92,,,
"USR0000ASHC","1997-09-06",60.98,50.00,,,
"USR0000ASHC","1997-09-07",55.94,51.98,,,
"USR0000ASHC","1997-09-08",60.98,55.94,,,
"USR0000ASHC","1997-09-09",64.94,51.98,,,
"USR0000ASHC","1997-09-10",60.98,50.00,,,
"USR0000ASHC","1997-09-11",59.00,50.00,,,
"USR0000ASHC","1997-09-12",62.96,48.02,,,
"USR0000ASHC","1997-09-13",69.98,48.92,,,
"USR0000ASHC","1997-09-14",66.92,48.02,,,
"USR0000ASHC","1997-09-15",64.04,48.92,,,
"USR0000ASHC","1997-09-16",57.92,48.02,,,
"USR0000ASHC","1998-04-29",55.94,44.96,,,
"USR0000ASHC","1998-04-30",73.04,42.98,,,
"USR0000ASHC","1998-05-01",69.98,46.94,,,
"USR0000ASHC","1998-05-02",62.06,46.04,,,
"USR0000ASHC","1998-05-03",62.06,44.06,,,
"USR0000ASHC","1998-05-04",64.94,42.98,,,
"USR0000ASHC","1998-05-05",66.02,42.98,,,
"USR0000ASHC","1998-05-06",51.08,41.00,,,
"USR0000ASHC","1998-05-07",50.00,37.94,,,
"USR0000ASHC","1998-05-08",51.08,37.04,,,
"USR0000ASHC","1998-05-09",64.94,37.04,,,
"USR0000ASHC","1998-05-10",62.06,41.00,,,
"USR0000ASHC","1998-05-11",55.94,41.00,,,
"USR0000ASHC","1998-05-12",60.98,42.08,,,
"USR0000ASHC","1998-05-13",48.02,42.08,,,
"USR0000ASHC","1998-05-14",57.92,42.08,,,
"USR0000ASHC","1998-05-15",68.00,41.00,,,
"USR0000ASHC","1998-05-16",66.92,42.98,,,
"USR0000ASHC","1998-05-17",66.92,41.00,,,
"USR0000ASHC","1998-05-18",59.00,46.94,,,
"USR0000ASHC","1998-05-19",66.02,46.04,,,
"USR0000ASHC","1998-05-20",59.00,44.96,,,
"USR0000ASHC","1998-05-21",57.92,46.94,,,
"USR0000ASHC","1998-05-22",53.96,44.06,,,
"USR0000ASHC","1998-05-23",64.04,44.06,,,
"USR0000ASHC","1998-05-24",53.06,46.94,,,
"USR0000ASHC","1998-05-25",62.96,44.96,,,
"USR0000ASHC","1998-05-26",71.06,48.02,,,
"USR0000ASHC","1998-05-27",91.04,51.98,,,
"USR0000ASHC","1998-05-28",60.98,50.00,,,
"USR0000ASHC","1998-05-29",71.06,48.02,,,
"USR0000ASHC","1998-05-30",69.98,51.08,,,
"USR0000ASHC","1998-05-31",62.06,48.92,,,
"USR0000ASHC","1998-06-01",71.06,48.92,,,
"USR0000ASHC","1998-06-02",78.98,53.96,,,
"USR0000ASHC","1998-06-03",80.96,57.02,,,